Flight Track Log - Related Links

Times and Time Zones

All times are in EST time to prevent confusion due to time zone crossing. See the KAP550 flight status page for this flight to view local times or setup timezone preferences in your user account.

Time Position Orientation Groundspeed Altitude Reporting Facility
EST Latitude Longitude Course Direction KTS MPH feet Rate Location/Type
06:14PM 42.7367 -73.8244 272° West 123 142 2,600  Level Boston Center
06:15PM 42.7475 -73.8294 341° North 125 144 3,100 1,700 Climbing Boston Center
06:15PM 42.7700 -73.8414 339° North 112 129 4,300 1,377 Climbing Boston Center
06:16PM 42.7753 -73.8431 347° North 106 122 4,500 885 Climbing Boston Center
06:16PM 42.7947 -73.8586 330° Northwest 95 109 5,200 885 Climbing Boston Center
06:17PM 42.8006 -73.8603 348° North 103 119 5,400 800 Climbing Boston Center
06:17PM 42.8225 -73.8711 340° North 105 121 6,000 871 Climbing Boston Center
06:18PM 42.8306 -73.8739 346° North 106 122 6,300 787 Climbing Boston Center
06:19PM 42.8503 -73.8833 341° North 109 125 6,800 787 Climbing Boston Center
06:19PM 42.8600 -73.8853 352° North 109 125 7,100 716 Climbing Boston Center
06:20PM 42.8822 -73.8972 339° North 113 130 7,600 689 Climbing Boston Center
06:20PM 42.8900 -73.8994 348° North 113 130 7,800 900 Climbing Boston Center
06:21PM 42.9161 -73.9117 341° North 121 139 8,500 774 Climbing Boston Center
06:21PM 42.9222 -73.9133 349° North 120 138 8,600 689 Climbing Boston Center
06:22PM 42.9500 -73.9261 341° North 123 142 9,200 787 Climbing Boston Center
06:22PM 42.9572 -73.9294 341° North 124 143 9,400 689 Climbing Boston Center
06:23PM 42.9839 -73.9406 343° North 126 145 9,900 590 Climbing Boston Center
06:23PM 42.9908 -73.9419 352° North 125 144 10,000 200 Climbing Boston Center
06:24PM 43.0197 -73.9558 341° North 138 159 10,100 98 Climbing Boston Center
06:24PM 43.0294 -73.9603 342° North 145 167 10,100  Level Boston Center
06:25PM 43.0739 -73.9800 342° North 166 191 10,100  Level Boston Center
06:26PM 43.1236 -74.0033 341° North 175 201 10,100  Level Boston Center
06:27PM 43.1686 -74.0233 342° North 169 194 10,100  Level Boston Center
06:28PM 43.2119 -74.0439 341° North 166 191 10,100  Level Boston Center
06:29PM 43.2542 -74.0639 341° North 160 184 10,100  Level Boston Center
06:30PM 43.3008 -74.0836 343° North 163 188 10,100  Level Boston Center
06:31PM 43.3431 -74.1028 342° North 161 185 10,100  Level Boston Center
06:32PM 43.3847 -74.1233 340° North 160 184 10,100  Level Boston Center
06:33PM 43.4153 -74.1375 341° North 161 185 10,100  Level Boston Center
06:34PM 43.4661 -74.1589 343° North 159 183 10,100  Level Boston Center
06:35PM 43.5086 -74.1786 341° North 161 185 10,100  Level Boston Center
06:36PM 43.5589 -74.2014 342° North 160 184 10,100  Level Boston Center
06:37PM 43.6025 -74.2222 341° North 164 189 10,100  Level Boston Center
06:38PM 43.6453 -74.2408 343° North 163 188 10,100  Level Boston Center
06:39PM 43.6872 -74.2597 342° North 160 184 10,100  Level Boston Center
06:40PM 43.7292 -74.2794 341° North 160 184 10,100  Level Boston Center
06:41PM 43.7722 -74.2994 341° North 161 185 10,100  Level Boston Center
06:42PM 43.8136 -74.3192 341° North 160 184 10,100  Level Boston Center
06:43PM 43.8556 -74.3392 341° North 159 183 10,100  Level Boston Center
06:44PM 43.8981 -74.3581 342° North 161 185 10,100  Level Boston Center
06:45PM 43.9314 -74.3747 340° North 160 184 10,100  Level Boston Center
06:46PM 43.9897 -74.4019 341° North 158 182 10,100  Level Boston Center
06:47PM 44.0314 -74.4206 342° North 159 183 10,100  Level Boston Center
06:48PM 44.0725 -74.4369 344° North 157 181 10,100  Level Boston Center
06:49PM 44.1142 -74.4569 341° North 157 181 10,100  Level Boston Center
06:50PM 44.1561 -74.4775 341° North 159 183 10,100 49 Level Boston Center
06:51PM 44.1978 -74.4958 342° North 158 182 10,200 49 Climbing Boston Center
06:52PM 44.2392 -74.5153 341° North 159 183 10,200  Level Boston Center
06:54PM 44.2803 -74.5350 341° North 157 181 10,200  Level Boston Center
06:55PM 44.3219 -74.5542 342° North 158 182 10,200  Level Boston Center
06:56PM 44.3722 -74.5786 341° North 160 184 10,200  Level Boston Center
06:57PM 44.4147 -74.5969 343° North 160 184 10,200  Level Boston Center
06:58PM 44.4564 -74.6164 342° North 159 183 10,200 -356 Level Boston Center
06:59PM 44.5092 -74.6433 340° North 166 191 9,400 -787 Descending Boston Center
07:00PM 44.5567 -74.6642 343° North 176 203 8,600 -780 Descending Boston Center
07:01PM 44.6036 -74.6853 342° North 178 205 7,800 -829 Descending Boston Center
07:02PM 44.6489 -74.7108 338° Northwest 176 203 6,900 -934 Descending Boston Center
07:03PM 44.6961 -74.7303 344° North 176 203 5,900 -984 Descending Boston Center

Login

Don't have an account? Register now (free) for customized features, flight alerts, and more!